Location: Rounton
(54.4000°N, 1.3500°W)
Time: 06:30:12
(UTC+00:00)

SR - Pass Details

Date: 01 December 2021
Orbit: 582 x 872 km, 66.7° (Epoch: 23 January)

Event Time Altitude Azimuth Distance (km) Brightness Sun altitude
Exits shadow 07:18:27 - 322° (NW) 2,255 ? -6.3°
Reaches altitude 10° 07:19:20 10° 325° (NW) 1,914 ? -6.1°
Maximum altitude 07:23:26 44° 39° (NE) 828 ? -5.6°
Drops below altitude 10° 07:27:37 10° 112° (ESE) 1,961 ? -5.1°
Sets 07:30:00 0° 119° (ESE) 2,896 ? -4.8°
